This demonstration page uses our WeatherBlox Daily Observations layout. Learn more.

Left ArrowRight Arrow

Hourly Observations for January 24, 2017

Temp ( °F °C ) Dew Point ( °F °C ) Humidity (%) Winds ( mph kmh ) Pressure ( in mb ) Visibility ( mi km ) Precip ( " mm )
12:16 am 00:16 Mostly Clear 28 -2 28 -2 100 100 ENE 7 11 29.85 1011 10 16 0.00 0.00
12:25 am 00:25 Mostly Cloudy 28 -2 28 -2 100 100 ENE 9 15 29.85 1011 10 16 0.00 0.00
12:43 am 00:43 Cloudy 28 -2 28 -2 100 100 ENE 9 15 29.85 1011 10 16 0.00 0.00
12:58 am 00:58 Cloudy 29 -1.4 29 -1.4 100 100 E 8 13 29.84 1011 10 16 0.00 0.00
1:58 am 01:58 Cloudy 30 -1 30 -1 100 100 E 8 13 29.85 1011 10 16 0.00 0.00
2:19 am 02:19 Cloudy 30 -1 30 -1 100 100 E 9 15 29.85 1011 9 14 0.00 0.00
2:58 am 02:58 Cloudy 30 -1 30 -1 100 100 E 8 13 29.84 1011 7 11 0.00 0.00
3:10 am 03:10 Cloudy 30 -1 30 -1 100 100 E 9 15 29.85 1011 7 11 0.00 0.00
3:55 am 03:55 Partly Cloudy with Mist and Fog 30 -1 30 -1 100 100 E 10 17 29.80 1009 6 10 0.00 0.00
3:58 am 03:58 Cloudy with Mist and Fog 30 -1.2 30 -1.2 100 100 ENE 9 15 29.81 1009 6 10 0.00 0.00
4:45 am 04:45 Mostly Cloudy with Mist and Fog 30 -1 30 -1 100 100 E 9 15 29.80 1009 6 10 0.00 0.00
4:58 am 04:58 Mostly Cloudy 30 -1.1 30 -1.1 100 100 E 10 17 29.82 1010 7 11 0.00 0.00
5:25 am 05:25 Mostly Cloudy with Mist and Fog 30 -1 30 -1 100 100 E 8 13 29.80 1009 6 10 0.00 0.00
5:58 am 05:58 Cloudy 30 -1.1 30 -1.1 100 100 E 13 20 29.79 1009 7 11 0.00 0.00
6:19 am 06:19 Cloudy 30 -1 30 -1 100 100 E 15 24 29.77 1008 8 13 0.00 0.00
6:37 am 06:37 Cloudy 30 -1 30 -1 100 100 ENE 13 20 29.77 1008 8 13 0.00 0.00
6:58 am 06:58 Cloudy 30 -1 30 -1 100 100 ENE 10 17 29.79 1009 8 13 0.00 0.00
7:07 am 07:07 Cloudy 32 0 32 0 100 100 E 9 15 29.77 1008 9 14 0.00 0.00
7:58 am 07:58 Cloudy 31 -0.8 31 -0.8 100 100 ENE 10 17 29.77 1008 8 13 0.00 0.00
8:37 am 08:37 Cloudy 32 0 32 0 100 100 E 15 24 29.77 1008 10 16 0.00 0.00
8:58 am 08:58 Cloudy 31 -0.5 31 -0.5 100 100 ENE 15 24 29.76 1008 10 16 0.00 0.00
9:28 am 09:28 Cloudy 32 0 32 0 100 100 E 10 17 29.77 1008 10 16 0.00 0.00
9:58 am 09:58 Cloudy 32 -0.2 32 -0.2 100 100 ENE 14 22 29.74 1007 10 16 0.00 0.00
10:49 am 10:49 Cloudy 32 0 32 0 100 100 ENE 13 20 29.74 1007 10 16 0.00 0.00
10:58 am 10:58 Mostly Cloudy 33 0.6 33 0.5 99 99 ENE 14 22 29.71 1006 10 16 0.00 0.00
11:07 am 11:07 Mostly Cloudy 32 0 32 0 100 100 E 16 26 29.71 1006 10 16 0.00 0.00
11:39 am 11:39 Mostly Cloudy with Light Wintry Mix 32 0 32 0 100 100 E 15 24 29.71 1006 10 16 0.00 0.00
11:58 am 11:58 Mostly Cloudy 33 0.7 33 0.6 99 99 E 15 24 29.66 1005 10 16 0.00 0.00
12:58 pm 12:58 Mostly Cloudy 34 1 34 1 100 100 ENE 18 30 29.58 1002 10 16 0.00 0.00
1:34 pm 13:34 Cloudy 36 2 34 1 93 93 NE 13 20 29.59 1002 10 16 0.00 0.00
1:55 pm 13:55 Cloudy 37 3 32 0 81 81 ENE 15 24 29.59 1002 10 16 0.00 0.00
1:58 pm 13:58 Cloudy 37 2.5 34 0.9 89 89 E 10 17 29.57 1001 10 16 0.00 0.00
2:13 pm 14:13 Mostly Cloudy 36 2 32 0 87 87 ENE 14 22 29.59 1002 10 16 0.00 0.00
2:32 pm 14:32 Cloudy 36 2 32 0 87 87 ENE 14 22 29.59 1002 10 16 0.00 0.00
2:58 pm 14:58 Mostly Cloudy 35 1.7 33 0.8 94 94 ENE 15 24 29.56 1001 10 16 0.00 0.00
3:58 pm 15:58 Mostly Cloudy 35 1.8 34 1.1 95 95 ENE 12 19 29.57 1001 10 16 0.00 0.00
4:58 pm 16:58 Cloudy 35 1.4 34 1.1 98 98 ENE 9 15 29.58 1002 10 16 0.00 0.00
5:46 pm 17:46 Cloudy with Drizzle 34 1 32 0 93 93 ENE 8 13 29.59 1002 8 13 0.00 0.00
5:55 pm 17:55 Cloudy with Drizzle 34 1 32 0 93 93 NE 8 13 29.62 1003 6 10 0.00 0.00
5:58 pm 17:58 Cloudy with Drizzle 34 1 32 0 93 93 NE 9 15 29.58 1002 6 10 0.00 0.03
6:58 pm 18:58 Cloudy with Drizzle 33 0.7 33 0.4 98 98 NE 9 15 29.60 1002 6 10 0.00 0.03
7:46 pm 19:46 Cloudy with Light Snow 32 0 32 0 100 100 NE 7 11 29.62 1003 6 10 0.00 0.00
7:58 pm 19:58 Cloudy with Light Snow 33 0.3 33 0.3 100 100 NNE 8 13 29.60 1002 7 11 0.00 0.03
8:15 pm 20:15 Cloudy with Light Snow 32 0 32 0 100 100 NE 7 11 29.62 1003 6 10 0.00 0.00
8:39 pm 20:39 Mostly Cloudy with Light Snow 32 0 32 0 100 100 NE 8 13 29.62 1003 4 6 0.00 0.00
8:48 pm 20:48 Mostly Cloudy with Light Snow 32 0 32 0 100 100 NNE 8 13 29.62 1003 3 4 0.00 0.00
8:50 pm 20:50 Cloudy with Light Snow 32 0 32 0 100 100 NNE 7 11 29.62 1003 3 4 0.00 0.00
8:58 pm 20:58 Cloudy with Light Snow 32 0.2 32 0.2 100 100 NE 8 13 29.59 1002 3 4 0.01 0.25
9:07 pm 21:07 Cloudy with Light Snow 32 0 32 0 100 100 NNE 8 13 29.62 1003 2 3 0.00 0.00
9:09 pm 21:09 Cloudy with Light Snow 32 0 32 0 100 100 NNE 8 13 29.62 1003 2 2 0.00 0.00
9:13 pm 21:13 Cloudy with Light Snow 32 0 32 0 100 100 NNE 6 9 29.62 1003 1 2 0.00 0.00
9:16 pm 21:16 Cloudy with Light Snow 32 0 32 0 100 100 N 6 9 29.62 1003 2 2 0.00 0.00
9:22 pm 21:22 Cloudy with Light Snow 32 0 32 0 100 100 N 9 15 29.62 1003 2 2 0.00 0.00
9:25 pm 21:25 Cloudy with Light Snow 32 0 32 0 100 100 NNE 8 13 29.62 1003 1 2 0.00 0.00
9:30 pm 21:30 Cloudy with Light Snow 32 0 32 0 100 100 NNE 5 7 29.62 1003 2 2 0.00 0.00
9:32 pm 21:32 Cloudy with Light Snow 32 0 32 0 100 100 NNE 8 13 29.62 1003 2 2 0.00 0.00
9:46 pm 21:46 Cloudy with Light Snow 32 0 32 0 100 100 VRB 5 7 29.62 1003 6 10 0.00 0.00
9:54 pm 21:54 Mostly Cloudy with Light Snow 32 0 32 0 100 100 N 6 9 29.62 1003 9 14 0.00 0.00
9:58 pm 21:58 Cloudy with Light Snow 32 0.1 32 0.1 100 100 N 6 9 29.59 1002 9 14 0.01 0.25
10:25 pm 22:25 Cloudy with Light Snow 32 0 32 0 100 100 NW 3 6 29.62 1003 9 14 0.00 0.00
10:58 pm 22:58 Cloudy with Light Snow 32 0.2 32 0.2 100 100 NNW 6 9 29.60 1002 9 14 0.04 1.02
11:04 pm 23:04 Cloudy with Light Snow 32 0 32 0 100 100 NNW 6 9 29.62 1003 10 16 0.00 0.00
11:16 pm 23:16 Cloudy with Light Snow 32 0 32 0 100 100 NNW 5 7 29.62 1003 10 16 0.00 0.00
11:37 pm 23:37 Cloudy with Light Snow 32 0 32 0 100 100 NNW 7 11 29.62 1003 9 14 0.00 0.00
11:40 pm 23:40 Cloudy with Light Snow 32 0 32 0 100 100 NNW 6 9 29.62 1003 8 13 0.00 0.00
11:43 pm 23:43 Cloudy with Light Snow 32 0 32 0 100 100 NNW 7 11 29.62 1003 8 13 0.00 0.00
11:46 pm 23:46 Cloudy with Light Snow 32 0 32 0 100 100 NNW 6 9 29.62 1003 8 13 0.00 0.00
11:58 pm 23:58 Cloudy with Light Snow 32 0.2 32 0.2 100 100 NW 6 9 29.61 1003 9 14 0.02 0.51

Powered by AerisWeather